Time,TemperatureF,DewpointF,PressureIn,WindDirection,WindDirectionDegrees,WindSpeedMPH,WindSpeedGustMPH,Humidity,HourlyPrecipIn,Conditions,Clouds,dailyrainin,SoftwareType,DateUTC
2013-05-03 00:04:00,44.2,34.7,30.36,NW,313,16.0,16.0,69,0.00,,,0.00,Wunderground v.1.15,2013-05-03 05:04:00,
2013-05-03 00:09:00,44.1,34.6,30.35,NW,307,16.0,20.0,69,0.00,,,0.00,Wunderground v.1.15,2013-05-03 05:09:00,
2013-05-03 00:14:00,44.1,34.6,30.36,NW,309,15.0,20.0,69,0.00,,,0.00,Wunderground v.1.15,2013-05-03 05:14:00,
2013-05-03 00:20:00,43.9,34.4,30.36,WNW,295,14.0,14.0,69,0.00,,,0.00,Wunderground v.1.15,2013-05-03 05:20:00,
2013-05-03 00:25:00,43.9,34.4,30.36,WNW,302,13.0,14.0,69,0.00,,,0.00,Wunderground v.1.15,2013-05-03 05:25:00,
2013-05-03 00:34:00,43.7,34.2,30.36,NW,316,12.0,14.0,69,0.00,,,0.00,Wunderground v.1.15,2013-05-03 05:34:00,
2013-05-03 00:39:00,43.6,34.5,30.36,WNW,303,13.0,13.0,70,0.00,,,0.00,Wunderground v.1.15,2013-05-03 05:39:00,
2013-05-03 00:44:00,43.6,34.5,30.35,NW,312,13.0,13.0,70,0.00,,,0.00,Wunderground v.1.15,2013-05-03 05:44:00,
2013-05-03 00:50:00,43.5,34.4,30.36,WNW,296,13.0,13.0,70,0.00,,,0.00,Wunderground v.1.15,2013-05-03 05:50:00,
2013-05-03 00:55:00,43.4,34.3,30.36,NW,319,13.0,13.0,70,0.00,,,0.00,Wunderground v.1.15,2013-05-03 05:55:00,
2013-05-03 01:04:00,42.9,34.1,30.36,NW,310,12.0,12.0,71,0.00,,,0.00,Wunderground v.1.15,2013-05-03 06:04:00,
2013-05-03 01:09:00,42.9,34.5,30.36,NW,307,12.0,12.0,72,0.00,,,0.00,Wunderground v.1.15,2013-05-03 06:09:00,
2013-05-03 01:14:00,42.7,34.3,30.35,NW,323,11.0,12.0,72,0.00,,,0.00,Wunderground v.1.15,2013-05-03 06:14:00,
2013-05-03 01:20:00,42.5,34.5,30.35,WNW,298,10.0,12.0,73,0.00,,,0.00,Wunderground v.1.15,2013-05-03 06:20:00,
2013-05-03 01:25:00,42.3,34.3,30.35,WNW,303,10.0,12.0,73,0.00,,,0.00,Wunderground v.1.15,2013-05-03 06:25:00,
2013-05-03 01:34:00,42.1,34.1,30.35,NNW,329,9.0,11.0,73,0.00,,,0.00,Wunderground v.1.15,2013-05-03 06:34:00,
2013-05-03 01:39:00,41.9,33.9,30.35,WNW,303,9.0,9.0,73,0.00,,,0.00,Wunderground v.1.15,2013-05-03 06:39:00,
2013-05-03 01:44:00,41.9,33.9,30.35,WNW,300,10.0,10.0,73,0.00,,,0.00,Wunderground v.1.15,2013-05-03 06:44:00,
2013-05-03 01:54:00,41.8,33.8,30.34,NW,320,9.0,12.0,73,0.00,,,0.00,Wunderground v.1.15,2013-05-03 06:54:00,
2013-05-03 01:59:00,41.7,33.7,30.34,WNW,299,9.0,9.0,73,0.00,,,0.00,Wunderground v.1.15,2013-05-03 06:59:00,
2013-05-03 02:04:00,41.6,33.6,30.34,NW,307,8.0,9.0,73,0.00,,,0.00,Wunderground v.1.15,2013-05-03 07:04:00,
2013-05-03 02:09:00,41.4,33.7,30.34,WNW,294,8.0,10.0,74,0.00,,,0.00,Wunderground v.1.15,2013-05-03 07:09:00,
2013-05-03 02:14:00,41.3,33.6,30.34,WNW,295,8.0,10.0,74,0.00,,,0.00,Wunderground v.1.15,2013-05-03 07:14:00,
2013-05-03 02:24:00,41.4,33.0,30.34,WNW,297,10.0,10.0,72,0.00,,,0.00,Wunderground v.1.15,2013-05-03 07:24:00,
2013-05-03 02:29:00,41.6,32.9,30.33,WNW,300,12.0,12.0,71,0.00,,,0.00,Wunderground v.1.15,2013-05-03 07:29:00,
2013-05-03 02:34:00,41.7,33.0,30.33,WNW,303,13.0,13.0,71,0.00,,,0.00,Wunderground v.1.15,2013-05-03 07:34:00,
2013-05-03 02:40:00,41.6,32.9,30.33,WNW,298,13.0,13.0,71,0.00,,,0.00,Wunderground v.1.15,2013-05-03 07:40:00,
2013-05-03 02:45:00,41.4,32.7,30.33,WNW,303,12.0,13.0,71,0.00,,,0.00,Wunderground v.1.15,2013-05-03 07:45:00,
2013-05-03 02:54:00,41.3,32.6,30.33,WNW,303,11.0,12.0,71,0.00,,,0.00,Wunderground v.1.15,2013-05-03 07:54:00,
2013-05-03 02:59:00,41.1,32.4,30.33,NW,311,10.0,10.0,71,0.00,,,0.00,Wunderground v.1.15,2013-05-03 07:59:00,
2013-05-03 03:04:00,40.8,32.5,30.33,WNW,299,9.0,10.0,72,0.00,,,0.00,Wunderground v.1.15,2013-05-03 08:04:00,
2013-05-03 03:09:00,40.7,32.4,30.33,NW,309,9.0,9.0,72,0.00,,,0.00,Wunderground v.1.15,2013-05-03 08:09:00,
2013-05-03 03:15:00,40.8,32.1,30.33,WNW,298,9.0,9.0,71,0.00,,,0.00,Wunderground v.1.15,2013-05-03 08:15:00,
2013-05-03 03:24:00,40.7,32.4,30.33,WNW,303,8.0,8.0,72,0.00,,,0.00,Wunderground v.1.15,2013-05-03 08:24:00,
2013-05-03 03:29:00,40.6,32.6,30.33,WNW,300,8.0,8.0,73,0.00,,,0.00,Wunderground v.1.15,2013-05-03 08:29:00,
2013-05-03 03:34:00,40.3,32.3,30.33,WNW,292,8.0,8.0,73,0.00,,,0.00,Wunderground v.1.15,2013-05-03 08:34:00,
2013-05-03 03:39:00,40.1,32.5,30.33,WNW,289,7.0,7.0,74,0.00,,,0.00,Wunderground v.1.15,2013-05-03 08:39:00,
2013-05-03 03:45:00,39.9,32.6,30.33,WNW,300,7.0,7.0,75,0.00,,,0.00,Wunderground v.1.15,2013-05-03 08:45:00,
2013-05-03 03:54:00,39.5,32.6,30.33,WNW,288,6.0,6.0,76,0.00,,,0.00,Wunderground v.1.15,2013-05-03 08:54:00,
2013-05-03 03:59:00,39.2,32.3,30.33,WNW,286,6.0,6.0,76,0.00,,,0.00,Wunderground v.1.15,2013-05-03 08:59:00,
2013-05-03 04:04:00,39.0,32.4,30.33,WNW,294,6.0,6.0,77,0.00,,,0.00,Wunderground v.1.15,2013-05-03 09:04:00,
2013-05-03 04:09:00,38.8,32.2,30.33,WNW,300,6.0,6.0,77,0.00,,,0.00,Wunderground v.1.15,2013-05-03 09:09:00,
2013-05-03 04:14:00,38.8,32.2,30.33,WNW,298,7.0,8.0,77,0.00,,,0.00,Wunderground v.1.15,2013-05-03 09:14:00,
2013-05-03 04:19:00,38.9,32.3,30.33,WNW,286,8.0,8.0,77,0.00,,,0.00,Wunderground v.1.15,2013-05-03 09:19:00,
2013-05-03 04:24:00,38.9,32.3,30.33,WNW,295,8.0,9.0,77,0.00,,,0.00,Wunderground v.1.15,2013-05-03 09:24:00,
2013-05-03 04:29:00,39.1,32.5,30.33,WNW,299,9.0,9.0,77,0.00,,,0.00,Wunderground v.1.15,2013-05-03 09:29:00,
2013-05-03 04:34:00,39.2,32.6,30.33,NW,309,9.0,9.0,77,0.00,,,0.00,Wunderground v.1.15,2013-05-03 09:34:00,
2013-05-03 04:39:00,39.2,32.6,30.33,NW,310,9.0,9.0,77,0.00,,,0.00,Wunderground v.1.15,2013-05-03 09:39:00,
2013-05-03 04:44:00,39.2,32.3,30.33,WNW,298,9.0,10.0,76,0.00,,,0.00,Wunderground v.1.15,2013-05-03 09:44:00,
2013-05-03 04:49:00,39.3,32.4,30.33,WNW,300,9.0,9.0,76,0.00,,,0.00,Wunderground v.1.15,2013-05-03 09:49:00,
2013-05-03 04:54:00,39.4,32.1,30.33,NW,304,9.0,9.0,75,0.00,,,0.00,Wunderground v.1.15,2013-05-03 09:54:00,
2013-05-03 04:59:00,39.4,32.1,30.33,WNW,300,9.0,9.0,75,0.00,,,0.00,Wunderground v.1.15,2013-05-03 09:59:00,
2013-05-03 05:04:00,39.5,32.2,30.33,WNW,293,9.0,9.0,75,0.00,,,0.00,Wunderground v.1.15,2013-05-03 10:04:00,
2013-05-03 05:09:00,39.5,32.2,30.33,WNW,303,9.0,9.0,75,0.00,,,0.00,Wunderground v.1.15,2013-05-03 10:09:00,
2013-05-03 05:14:00,39.3,32.0,30.33,WNW,300,8.0,10.0,75,0.00,,,0.00,Wunderground v.1.15,2013-05-03 10:14:00,
2013-05-03 05:19:00,39.2,31.9,30.32,West,281,8.0,10.0,75,0.00,,,0.00,Wunderground v.1.15,2013-05-03 10:19:00,
2013-05-03 05:29:00,39.2,31.9,30.32,WNW,291,9.0,9.0,75,0.00,,,0.00,Wunderground v.1.15,2013-05-03 10:29:00,
2013-05-03 05:34:00,39.2,31.9,30.32,WNW,298,9.0,9.0,75,0.00,,,0.00,Wunderground v.1.15,2013-05-03 10:34:00,
2013-05-03 05:39:00,39.2,31.6,30.32,WNW,287,9.0,9.0,74,0.00,,,0.00,Wunderground v.1.15,2013-05-03 10:39:00,
2013-05-03 05:44:00,39.2,31.6,30.32,WNW,290,9.0,9.0,74,0.00,,,0.00,Wunderground v.1.15,2013-05-03 10:44:00,
2013-05-03 05:49:00,39.1,31.5,30.33,WNW,293,9.0,10.0,74,0.00,,,0.00,Wunderground v.1.15,2013-05-03 10:49:00,
2013-05-03 05:59:00,39.1,31.2,30.32,WNW,298,9.0,9.0,73,0.00,,,0.00,Wunderground v.1.15,2013-05-03 10:59:00,
2013-05-03 06:04:00,39.4,30.8,30.33,WNW,287,10.0,10.0,71,0.00,,,0.00,Wunderground v.1.15,2013-05-03 11:04:00,
2013-05-03 06:09:00,39.4,30.8,30.33,WNW,293,11.0,11.0,71,0.00,,,0.00,Wunderground v.1.15,2013-05-03 11:09:00,
2013-05-03 06:14:00,39.3,30.7,30.33,NW,305,10.0,11.0,71,0.00,,,0.00,Wunderground v.1.15,2013-05-03 11:14:00,
2013-05-03 06:19:00,39.5,30.5,30.32,WNW,296,10.0,12.0,70,0.00,,,0.00,Wunderground v.1.15,2013-05-03 11:19:00,
2013-05-03 06:24:00,39.5,30.5,30.33,NW,304,11.0,15.0,70,0.00,,,0.00,Wunderground v.1.15,2013-05-03 11:24:00,
2013-05-03 06:34:00,39.6,30.3,30.33,WNW,291,11.0,11.0,69,0.00,,,0.00,Wunderground v.1.15,2013-05-03 11:34:00,
2013-05-03 06:39:00,39.7,30.4,30.33,WNW,295,11.0,11.0,69,0.00,,,0.00,Wunderground v.1.15,2013-05-03 11:39:00,
2013-05-03 06:44:00,39.6,30.3,30.33,WNW,298,10.0,12.0,69,0.00,,,0.00,Wunderground v.1.15,2013-05-03 11:44:00,
2013-05-03 06:50:00,39.7,30.0,30.33,WNW,293,10.0,10.0,68,0.00,,,0.00,Wunderground v.1.15,2013-05-03 11:50:00,
2013-05-03 06:59:00,40.0,30.3,30.33,WNW,284,10.0,10.0,68,0.00,,,0.00,Wunderground v.1.15,2013-05-03 11:59:00,
2013-05-03 07:04:00,40.0,30.3,30.33,WNW,288,10.0,10.0,68,0.00,,,0.00,Wunderground v.1.15,2013-05-03 12:04:00,
2013-05-03 07:09:00,40.2,30.1,30.33,WNW,295,10.0,10.0,67,0.00,,,0.00,Wunderground v.1.15,2013-05-03 12:09:00,
2013-05-03 07:14:00,40.4,30.3,30.34,WNW,299,10.0,10.0,67,0.00,,,0.00,Wunderground v.1.15,2013-05-03 12:14:00,
2013-05-03 07:19:00,40.7,30.6,30.34,NW,310,10.0,11.0,67,0.00,,,0.00,Wunderground v.1.15,2013-05-03 12:19:00,
2013-05-03 07:24:00,41.1,30.2,30.34,WNW,303,11.0,12.0,65,0.00,,,0.00,Wunderground v.1.15,2013-05-03 12:24:00,
2013-05-03 07:29:00,41.4,30.5,30.34,WNW,303,12.0,14.0,65,0.00,,,0.00,Wunderground v.1.15,2013-05-03 12:29:00,
2013-05-03 07:39:00,41.9,30.6,30.34,NW,310,11.0,13.0,64,0.00,,,0.00,Wunderground v.1.15,2013-05-03 12:39:00,
2013-05-03 07:44:00,42.2,30.5,30.34,WNW,295,12.0,15.0,63,0.00,,,0.00,Wunderground v.1.15,2013-05-03 12:44:00,
2013-05-03 07:50:00,42.4,30.7,30.34,NW,309,13.0,13.0,63,0.00,,,0.00,Wunderground v.1.15,2013-05-03 12:50:00,
2013-05-03 07:59:00,43.0,30.9,30.34,WNW,297,12.0,16.0,62,0.00,,,0.00,Wunderground v.1.15,2013-05-03 12:59:00,
2013-05-03 08:09:00,43.6,31.0,30.34,WNW,303,14.0,14.0,61,0.00,,,0.00,Wunderground v.1.15,2013-05-03 13:09:00,
2013-05-03 08:14:00,44.0,31.0,30.34,WNW,303,14.0,14.0,60,0.00,,,0.00,Wunderground v.1.15,2013-05-03 13:14:00,
2013-05-03 08:19:00,44.3,30.9,30.34,NW,305,15.0,15.0,59,0.00,,,0.00,Wunderground v.1.15,2013-05-03 13:19:00,
2013-05-03 08:24:00,44.7,30.8,30.34,NW,307,15.0,15.0,58,0.00,,,0.00,Wunderground v.1.15,2013-05-03 13:24:00,
2013-05-03 08:29:00,45.2,30.9,30.34,NW,315,15.0,15.0,57,0.00,,,0.00,Wunderground v.1.15,2013-05-03 13:29:00,
2013-05-03 08:34:00,45.6,31.2,30.34,WNW,298,15.0,17.0,57,0.00,,,0.00,Wunderground v.1.15,2013-05-03 13:34:00,
2013-05-03 08:44:00,46.2,30.5,30.34,NW,311,16.0,17.0,54,0.00,,,0.00,Wunderground v.1.15,2013-05-03 13:44:00,
2013-05-03 08:49:00,46.4,30.6,30.34,WNW,298,17.0,18.0,54,0.00,,,0.00,Wunderground v.1.15,2013-05-03 13:49:00,
2013-05-03 08:59:00,47.0,30.7,30.34,NW,316,16.0,19.0,53,0.00,,,0.00,Wunderground v.1.15,2013-05-03 13:59:00,
2013-05-03 09:04:00,47.3,31.5,30.34,NW,310,18.0,19.0,54,0.00,,,0.00,Wunderground v.1.15,2013-05-03 14:04:00,
2013-05-03 09:14:00,47.7,31.4,30.34,NW,307,17.0,18.0,53,0.00,,,0.00,Wunderground v.1.15,2013-05-03 14:14:00,
2013-05-03 09:19:00,48.1,31.8,30.33,NW,314,17.0,17.0,53,0.00,,,0.00,Wunderground v.1.15,2013-05-03 14:19:00,
2013-05-03 09:24:00,48.4,32.0,30.34,NW,323,16.0,17.0,53,0.00,,,0.00,Wunderground v.1.15,2013-05-03 14:24:00,
2013-05-03 09:29:00,48.8,31.0,30.34,WNW,303,16.0,20.0,50,0.00,,,0.00,Wunderground v.1.15,2013-05-03 14:29:00,
2013-05-03 09:34:00,49.1,31.7,30.34,NW,319,16.0,24.0,51,0.00,,,0.00,Wunderground v.1.15,2013-05-03 14:34:00,
2013-05-03 09:39:00,49.3,31.4,30.34,WNW,298,16.0,16.0,50,0.00,,,0.00,Wunderground v.1.15,2013-05-03 14:39:00,
2013-05-03 09:44:00,49.4,31.0,30.34,NW,314,17.0,18.0,49,0.00,,,0.00,Wunderground v.1.15,2013-05-03 14:44:00,
2013-05-03 09:54:00,50.2,30.7,30.34,North,351,17.0,18.0,47,0.00,,,0.00,Wunderground v.1.15,2013-05-03 14:54:00,
2013-05-03 10:04:00,51.1,29.4,30.34,NNW,331,19.0,25.0,43,0.00,,,0.00,Wunderground v.1.15,2013-05-03 15:04:00,
2013-05-03 10:09:00,51.4,29.1,30.33,NW,313,22.0,22.0,42,0.00,,,0.00,Wunderground v.1.15,2013-05-03 15:09:00,
2013-05-03 10:14:00,52.1,30.3,30.34,NW,313,19.0,22.0,43,0.00,,,0.00,Wunderground v.1.15,2013-05-03 15:14:00,
2013-05-03 10:24:00,52.5,26.9,30.33,NW,321,20.0,23.0,37,0.00,,,0.00,Wunderground v.1.15,2013-05-03 15:24:00,
2013-05-03 10:29:00,52.7,27.1,30.33,NW,319,21.0,25.0,37,0.00,,,0.00,Wunderground v.1.15,2013-05-03 15:29:00,
2013-05-03 10:34:00,52.9,28.0,30.33,NW,305,22.0,25.0,38,0.00,,,0.00,Wunderground v.1.15,2013-05-03 15:34:00,
2013-05-03 10:39:00,53.6,27.3,30.33,NNW,328,20.0,20.0,36,0.00,,,0.00,Wunderground v.1.15,2013-05-03 15:39:00,
2013-05-03 10:44:00,53.7,28.0,30.33,North,4,19.0,21.0,37,0.00,,,0.00,Wunderground v.1.15,2013-05-03 15:44:00,
2013-05-03 10:49:00,54.2,27.8,30.32,North,351,19.0,19.0,36,0.00,,,0.00,Wunderground v.1.15,2013-05-03 15:49:00,
2013-05-03 10:59:00,54.6,26.8,30.33,NNW,337,18.0,26.0,34,0.00,,,0.00,Wunderground v.1.15,2013-05-03 15:59:00,
2013-05-03 11:04:00,54.6,28.2,30.33,WNW,300,19.0,26.0,36,0.00,,,0.00,Wunderground v.1.15,2013-05-03 16:04:00,
2013-05-03 11:09:00,54.7,28.9,30.33,NW,313,19.0,19.0,37,0.00,,,0.00,Wunderground v.1.15,2013-05-03 16:09:00,
2013-05-03 11:14:00,54.9,28.4,30.32,North,9,19.0,22.0,36,0.00,,,0.00,Wunderground v.1.15,2013-05-03 16:14:00,
2013-05-03 11:19:00,55.3,28.8,30.32,NW,311,19.0,22.0,36,0.00,,,0.00,Wunderground v.1.15,2013-05-03 16:19:00,
2013-05-03 11:24:00,55.2,28.7,30.32,NNW,327,19.0,22.0,36,0.00,,,0.00,Wunderground v.1.15,2013-05-03 16:24:00,
2013-05-03 11:29:00,55.2,28.0,30.32,North,351,19.0,19.0,35,0.00,,,0.00,Wunderground v.1.15,2013-05-03 16:29:00,
2013-05-03 11:34:00,55.1,27.9,30.32,NW,324,21.0,24.0,35,0.00,,,0.00,Wunderground v.1.15,2013-05-03 16:34:00,
2013-05-03 11:39:00,55.3,28.1,30.31,North,351,22.0,22.0,35,0.00,,,0.00,Wunderground v.1.15,2013-05-03 16:39:00,
2013-05-03 11:44:00,55.7,29.8,30.31,WNW,296,20.0,22.0,37,0.00,,,0.00,Wunderground v.1.15,2013-05-03 16:44:00,
2013-05-03 11:50:00,55.9,28.6,30.31,NW,319,19.0,19.0,35,0.00,,,0.00,Wunderground v.1.15,2013-05-03 16:50:00,
2013-05-03 11:59:00,56.2,29.6,30.30,North,350,18.0,18.0,36,0.00,,,0.00,Wunderground v.1.15,2013-05-03 16:59:00,
2013-05-03 12:04:00,56.6,29.9,30.30,NW,305,16.0,18.0,36,0.00,,,0.00,Wunderground v.1.15,2013-05-03 17:04:00,
2013-05-03 12:09:00,57.0,28.9,30.30,NW,314,16.0,16.0,34,0.00,,,0.00,Wunderground v.1.15,2013-05-03 17:09:00,
2013-05-03 12:14:00,57.2,28.3,30.29,NW,307,18.0,20.0,33,0.00,,,0.00,Wunderground v.1.15,2013-05-03 17:14:00,
2013-05-03 12:19:00,57.3,27.7,30.29,NW,317,18.0,18.0,32,0.00,,,0.00,Wunderground v.1.15,2013-05-03 17:19:00,
2013-05-03 12:29:00,57.7,25.6,30.28,NNW,331,18.0,24.0,29,0.00,,,0.00,Wunderground v.1.15,2013-05-03 17:29:00,
2013-05-03 12:34:00,58.4,27.1,30.28,NW,318,17.0,24.0,30,0.00,,,0.00,Wunderground v.1.15,2013-05-03 17:34:00,
2013-05-03 12:39:00,58.5,27.9,30.27,NW,319,17.0,17.0,31,0.00,,,0.00,Wunderground v.1.15,2013-05-03 17:39:00,
2013-05-03 12:44:00,59.1,29.2,30.27,NW,306,17.0,20.0,32,0.00,,,0.00,Wunderground v.1.15,2013-05-03 17:44:00,
2013-05-03 12:50:00,58.9,26.7,30.27,North,355,16.0,16.0,29,0.00,,,0.00,Wunderground v.1.15,2013-05-03 17:50:00,
2013-05-03 12:59:00,58.6,27.2,30.26,NW,322,16.0,16.0,30,0.00,,,0.00,Wunderground v.1.15,2013-05-03 17:59:00,
2013-05-03 13:04:00,59.1,26.8,30.25,NW,316,17.0,19.0,29,0.00,,,0.00,Wunderground v.1.15,2013-05-03 18:04:00,
2013-05-03 13:09:00,59.1,26.8,30.25,NNW,345,17.0,17.0,29,0.00,,,0.00,Wunderground v.1.15,2013-05-03 18:09:00,
2013-05-03 13:14:00,59.3,23.4,30.25,NW,317,18.0,18.0,25,0.00,,,0.00,Wunderground v.1.15,2013-05-03 18:14:00,
2013-05-03 13:19:00,59.8,24.8,30.24,NW,307,17.0,19.0,26,0.00,,,0.00,Wunderground v.1.15,2013-05-03 18:19:00,
2013-05-03 13:24:00,59.7,24.7,30.24,NNW,341,18.0,19.0,26,0.00,,,0.00,Wunderground v.1.15,2013-05-03 18:24:00,
2013-05-03 13:34:00,59.6,25.5,30.23,NW,317,16.0,18.0,27,0.00,,,0.00,Wunderground v.1.15,2013-05-03 18:34:00,
2013-05-03 13:39:00,59.9,24.9,30.24,NW,311,17.0,22.0,26,0.00,,,0.00,Wunderground v.1.15,2013-05-03 18:39:00,
2013-05-03 13:44:00,60.3,27.0,30.23,NW,308,18.0,22.0,28,0.00,,,0.00,Wunderground v.1.15,2013-05-03 18:44:00,
2013-05-03 13:50:00,60.3,26.1,30.23,NNW,345,14.0,16.0,27,0.00,,,0.00,Wunderground v.1.15,2013-05-03 18:50:00,
2013-05-03 13:59:00,61.0,26.7,30.21,NNW,327,15.0,20.0,27,0.00,,,0.00,Wunderground v.1.15,2013-05-03 18:59:00,
2013-05-03 14:09:00,60.8,25.7,30.21,WNW,298,16.0,18.0,26,0.00,,,0.00,Wunderground v.1.15,2013-05-03 19:09:00,
2013-05-03 14:14:00,61.0,25.8,30.20,WNW,301,16.0,18.0,26,0.00,,,0.00,Wunderground v.1.15,2013-05-03 19:14:00,
2013-05-03 14:19:00,60.7,26.5,30.21,WNW,289,17.0,17.0,27,0.00,,,0.00,Wunderground v.1.15,2013-05-03 19:19:00,
2013-05-03 14:24:00,60.8,27.5,30.20,WNW,291,15.0,26.0,28,0.00,,,0.00,Wunderground v.1.15,2013-05-03 19:24:00,
2013-05-03 14:29:00,61.2,27.8,30.20,NW,304,15.0,21.0,28,0.00,,,0.00,Wunderground v.1.15,2013-05-03 19:29:00,
2013-05-03 14:39:00,61.2,26.0,30.20,WNW,292,14.0,14.0,26,0.00,,,0.00,Wunderground v.1.15,2013-05-03 19:39:00,
2013-05-03 14:44:00,62.0,25.7,30.19,NW,309,12.0,21.0,25,0.00,,,0.00,Wunderground v.1.15,2013-05-03 19:44:00,
2013-05-03 14:50:00,61.3,26.1,30.19,WNW,298,17.0,17.0,26,0.00,,,0.00,Wunderground v.1.15,2013-05-03 19:50:00,
2013-05-03 14:59:00,61.9,27.5,30.18,NW,317,17.0,17.0,27,0.00,,,0.00,Wunderground v.1.15,2013-05-03 19:59:00,
2013-05-03 15:04:00,62.4,25.1,30.18,NNW,332,16.0,19.0,24,0.00,,,0.00,Wunderground v.1.15,2013-05-03 20:04:00,
2013-05-03 15:14:00,62.6,26.2,30.17,NW,317,14.0,19.0,25,0.00,,,0.00,Wunderground v.1.15,2013-05-03 20:14:00,
2013-05-03 15:19:00,62.4,26.1,30.17,NW,316,15.0,16.0,25,0.00,,,0.00,Wunderground v.1.15,2013-05-03 20:19:00,
2013-05-03 15:24:00,62.4,27.0,30.16,NW,323,13.0,16.0,26,0.00,,,0.00,Wunderground v.1.15,2013-05-03 20:24:00,
2013-05-03 15:29:00,63.2,27.7,30.16,NW,312,15.0,16.0,26,0.00,,,0.00,Wunderground v.1.15,2013-05-03 20:29:00,
2013-05-03 15:34:00,62.7,26.3,30.16,NW,315,16.0,16.0,25,0.00,,,0.00,Wunderground v.1.15,2013-05-03 20:34:00,
2013-05-03 15:44:00,63.2,25.8,30.15,NW,313,12.0,18.0,24,0.00,,,0.00,Wunderground v.1.15,2013-05-03 20:44:00,
2013-05-03 15:50:00,62.9,26.5,30.15,WNW,299,13.0,13.0,25,0.00,,,0.00,Wunderground v.1.15,2013-05-03 20:50:00,
2013-05-03 15:59:00,63.5,27.0,30.14,NNW,338,11.0,14.0,25,0.00,,,0.00,Wunderground v.1.15,2013-05-03 20:59:00,
2013-05-03 16:04:00,63.7,26.2,30.14,NNW,327,14.0,14.0,24,0.00,,,0.00,Wunderground v.1.15,2013-05-03 21:04:00,
2013-05-03 16:09:00,63.1,24.7,30.14,WNW,288,13.0,13.0,23,0.00,,,0.00,Wunderground v.1.15,2013-05-03 21:09:00,
2013-05-03 16:19:00,63.3,24.8,30.13,WNW,296,11.0,11.0,23,0.00,,,0.00,Wunderground v.1.15,2013-05-03 21:19:00,
2013-05-03 16:24:00,63.5,23.9,30.13,WNW,301,12.0,17.0,22,0.00,,,0.00,Wunderground v.1.15,2013-05-03 21:24:00,
2013-05-03 16:29:00,63.9,25.3,30.13,West,277,13.0,13.0,23,0.00,,,0.00,Wunderground v.1.15,2013-05-03 21:29:00,
2013-05-03 16:34:00,63.6,25.1,30.12,WNW,303,14.0,19.0,23,0.00,,,0.00,Wunderground v.1.15,2013-05-03 21:34:00,
2013-05-03 16:39:00,63.3,23.8,30.12,West,273,14.0,14.0,22,0.00,,,0.00,Wunderground v.1.15,2013-05-03 21:39:00,
2013-05-03 16:50:00,64.1,25.5,30.12,WNW,298,12.0,20.0,23,0.00,,,0.00,Wunderground v.1.15,2013-05-03 21:50:00,
2013-05-03 16:59:00,63.7,24.1,30.11,NNW,329,14.0,14.0,22,0.00,,,0.00,Wunderground v.1.15,2013-05-03 21:59:00,
2013-05-03 17:04:00,63.6,24.0,30.11,NNW,345,11.0,14.0,22,0.00,,,0.00,Wunderground v.1.15,2013-05-03 22:04:00,
2013-05-03 17:09:00,63.5,23.9,30.11,North,5,10.0,11.0,22,0.00,,,0.00,Wunderground v.1.15,2013-05-03 22:09:00,
2013-05-03 17:14:00,64.2,25.6,30.10,WNW,287,10.0,11.0,23,0.00,,,0.00,Wunderground v.1.15,2013-05-03 22:14:00,
2013-05-03 17:19:00,64.8,27.1,30.10,WNW,288,11.0,13.0,24,0.00,,,0.00,Wunderground v.1.15,2013-05-03 22:19:00,
2013-05-03 17:24:00,64.3,24.6,30.10,WNW,285,13.0,15.0,22,0.00,,,0.00,Wunderground v.1.15,2013-05-03 22:24:00,
2013-05-03 17:29:00,64.1,24.4,30.10,NW,309,12.0,12.0,22,0.00,,,0.00,Wunderground v.1.15,2013-05-03 22:29:00,
2013-05-03 17:34:00,64.0,24.4,30.10,WNW,282,10.0,12.0,22,0.00,,,0.00,Wunderground v.1.15,2013-05-03 22:34:00,
2013-05-03 17:39:00,64.3,24.6,30.09,NNW,340,11.0,11.0,22,0.00,,,0.00,Wunderground v.1.15,2013-05-03 22:39:00,
2013-05-03 17:44:00,64.5,24.8,30.09,NW,324,11.0,11.0,22,0.00,,,0.00,Wunderground v.1.15,2013-05-03 22:44:00,
2013-05-03 17:50:00,64.2,24.5,30.09,NW,313,13.0,13.0,22,0.00,,,0.00,Wunderground v.1.15,2013-05-03 22:50:00,
2013-05-03 17:59:00,64.4,24.7,30.09,North,360,8.0,8.0,22,0.00,,,0.00,Wunderground v.1.15,2013-05-03 22:59:00,
2013-05-03 18:04:00,64.5,24.8,30.09,WNW,285,11.0,11.0,22,0.00,,,0.00,Wunderground v.1.15,2013-05-03 23:04:00,
2013-05-03 18:09:00,64.6,24.9,30.09,NW,317,12.0,12.0,22,0.00,,,0.00,Wunderground v.1.15,2013-05-03 23:09:00,
2013-05-03 18:14:00,64.5,24.8,30.08,NW,317,11.0,12.0,22,0.00,,,0.00,Wunderground v.1.15,2013-05-03 23:14:00,
2013-05-03 18:19:00,64.6,24.9,30.08,WNW,286,11.0,11.0,22,0.00,,,0.00,Wunderground v.1.15,2013-05-03 23:19:00,
2013-05-03 18:29:00,64.3,25.7,30.08,WNW,291,12.0,12.0,23,0.00,,,0.00,Wunderground v.1.15,2013-05-03 23:29:00,
2013-05-03 18:34:00,64.4,24.7,30.08,NW,314,11.0,12.0,22,0.00,,,0.00,Wunderground v.1.15,2013-05-03 23:34:00,
2013-05-03 18:39:00,64.5,25.8,30.08,NNW,330,10.0,10.0,23,0.00,,,0.00,Wunderground v.1.15,2013-05-03 23:39:00,
2013-05-03 18:44:00,64.4,24.7,30.08,NW,319,10.0,10.0,22,0.00,,,0.00,Wunderground v.1.15,2013-05-03 23:44:00,
2013-05-03 18:50:00,64.5,24.8,30.08,NNW,337,9.0,9.0,22,0.00,,,0.00,Wunderground v.1.15,2013-05-03 23:50:00,
2013-05-03 18:59:00,64.3,24.6,30.08,NW,312,8.0,9.0,22,0.00,,,0.00,Wunderground v.1.15,2013-05-03 23:59:00,
2013-05-03 19:04:00,64.3,24.6,30.08,NW,323,8.0,9.0,22,0.00,,,0.00,Wunderground v.1.15,2013-05-04 00:04:00,
2013-05-03 19:09:00,64.2,24.5,30.08,NW,313,8.0,8.0,22,0.00,,,0.00,Wunderground v.1.15,2013-05-04 00:09:00,
2013-05-03 19:14:00,64.3,25.7,30.08,NNE,21,6.0,8.0,23,0.00,,,0.00,Wunderground v.1.15,2013-05-04 00:14:00,
2013-05-03 19:19:00,64.2,25.6,30.07,NW,313,5.0,7.0,23,0.00,,,0.00,Wunderground v.1.15,2013-05-04 00:19:00,
2013-05-03 19:24:00,64.0,25.4,30.07,WNW,301,7.0,7.0,23,0.00,,,0.00,Wunderground v.1.15,2013-05-04 00:24:00,
2013-05-03 19:34:00,63.7,26.2,30.07,NNW,330,7.0,7.0,24,0.00,,,0.00,Wunderground v.1.15,2013-05-04 00:34:00,
2013-05-03 19:39:00,63.2,26.8,30.07,NW,307,7.0,7.0,25,0.00,,,0.00,Wunderground v.1.15,2013-05-04 00:39:00,
2013-05-03 19:44:00,62.8,25.4,30.07,NW,322,6.0,7.0,24,0.00,,,0.00,Wunderground v.1.15,2013-05-04 00:44:00,
2013-05-03 19:49:00,62.5,26.2,30.08,NNW,336,6.0,6.0,25,0.00,,,0.00,Wunderground v.1.15,2013-05-04 00:49:00,
2013-05-03 19:54:00,62.2,25.9,30.08,NW,326,5.0,6.0,25,0.00,,,0.00,Wunderground v.1.15,2013-05-04 00:54:00,
2013-05-03 20:04:00,61.2,26.0,30.08,NNW,330,4.0,4.0,26,0.00,,,0.00,Wunderground v.1.15,2013-05-04 01:04:00,
2013-05-03 20:09:00,60.7,25.6,30.08,NNW,327,4.0,4.0,26,0.00,,,0.00,Wunderground v.1.15,2013-05-04 01:09:00,
2013-05-03 20:14:00,60.4,26.2,30.08,NNW,329,3.0,4.0,27,0.00,,,0.00,Wunderground v.1.15,2013-05-04 01:14:00,
2013-05-03 20:19:00,60.1,26.0,30.08,NNW,336,3.0,3.0,27,0.00,,,0.00,Wunderground v.1.15,2013-05-04 01:19:00,
2013-05-03 20:24:00,59.6,26.4,30.08,NNW,330,3.0,3.0,28,0.00,,,0.00,Wunderground v.1.15,2013-05-04 01:24:00,
2013-05-03 20:29:00,59.1,26.0,30.08,NNW,334,3.0,3.0,28,0.00,,,0.00,Wunderground v.1.15,2013-05-04 01:29:00,
2013-05-03 20:39:00,58.9,25.8,30.09,NNW,334,2.0,2.0,28,0.00,,,0.00,Wunderground v.1.15,2013-05-04 01:39:00,
2013-05-03 20:44:00,58.8,25.7,30.09,NNW,335,2.0,3.0,28,0.00,,,0.00,Wunderground v.1.15,2013-05-04 01:44:00,
2013-05-03 20:49:00,58.9,25.8,30.09,NNW,334,3.0,3.0,28,0.00,,,0.00,Wunderground v.1.15,2013-05-04 01:49:00,
2013-05-03 20:54:00,58.4,25.4,30.09,NNW,334,2.0,3.0,28,0.00,,,0.00,Wunderground v.1.15,2013-05-04 01:54:00,
2013-05-03 20:59:00,58.0,25.0,30.09,NNW,334,2.0,2.0,28,0.00,,,0.00,Wunderground v.1.15,2013-05-04 01:59:00,
2013-05-03 21:09:00,57.8,25.7,30.09,NNW,334,1.0,1.0,29,0.00,,,0.00,Wunderground v.1.15,2013-05-04 02:09:00,
2013-05-03 21:14:00,57.4,25.4,30.09,NNW,334,0.0,1.0,29,0.00,,,0.00,Wunderground v.1.15,2013-05-04 02:14:00,
2013-05-03 21:19:00,57.2,26.0,30.09,NNW,334,0.0,0.0,30,0.00,,,0.00,Wunderground v.1.15,2013-05-04 02:19:00,
2013-05-03 21:24:00,57.0,25.8,30.09,NNW,334,0.0,0.0,30,0.00,,,0.00,Wunderground v.1.15,2013-05-04 02:24:00,
2013-05-03 21:29:00,56.7,25.6,30.10,NNW,335,0.0,0.0,30,0.00,,,0.00,Wunderground v.1.15,2013-05-04 02:29:00,
2013-05-03 21:34:00,56.6,26.3,30.10,NNW,334,0.0,0.0,31,0.00,,,0.00,Wunderground v.1.15,2013-05-04 02:34:00,
2013-05-03 21:44:00,57.0,25.8,30.10,NNW,335,0.0,0.0,30,0.00,,,0.00,Wunderground v.1.15,2013-05-04 02:44:00,
2013-05-03 21:49:00,56.8,25.7,30.10,NNW,334,0.0,0.0,30,0.00,,,0.00,Wunderground v.1.15,2013-05-04 02:49:00,
2013-05-03 21:54:00,56.5,25.4,30.11,NNW,334,0.0,1.0,30,0.00,,,0.00,Wunderground v.1.15,2013-05-04 02:54:00,
2013-05-03 21:59:00,55.9,25.7,30.11,South,189,1.0,3.0,31,0.00,,,0.00,Wunderground v.1.15,2013-05-04 02:59:00,
2013-05-03 22:04:00,55.7,26.3,30.11,South,190,3.0,4.0,32,0.00,,,0.00,Wunderground v.1.15,2013-05-04 03:04:00,
2013-05-03 22:14:00,56.3,26.0,30.11,South,191,4.0,4.0,31,0.00,,,0.00,Wunderground v.1.15,2013-05-04 03:14:00,
2013-05-03 22:19:00,56.6,26.3,30.11,SSW,193,4.0,4.0,31,0.00,,,0.00,Wunderground v.1.15,2013-05-04 03:19:00,
2013-05-03 22:24:00,56.8,25.7,30.11,SSW,194,4.0,5.0,30,0.00,,,0.00,Wunderground v.1.15,2013-05-04 03:24:00,
2013-05-03 22:29:00,57.0,25.8,30.11,SSW,194,5.0,5.0,30,0.00,,,0.00,Wunderground v.1.15,2013-05-04 03:29:00,
2013-05-03 22:34:00,57.1,25.9,30.11,South,190,5.0,5.0,30,0.00,,,0.00,Wunderground v.1.15,2013-05-04 03:34:00,
2013-05-03 22:39:00,56.7,26.4,30.10,South,190,5.0,5.0,31,0.00,,,0.00,Wunderground v.1.15,2013-05-04 03:39:00,
2013-05-03 22:49:00,54.3,27.2,30.10,South,189,3.0,3.0,35,0.00,,,0.00,Wunderground v.1.15,2013-05-04 03:49:00,
2013-05-03 22:54:00,52.7,27.8,30.10,South,190,2.0,3.0,38,0.00,,,0.00,Wunderground v.1.15,2013-05-04 03:54:00,
2013-05-03 22:59:00,51.6,27.4,30.10,South,190,2.0,2.0,39,0.00,,,0.00,Wunderground v.1.15,2013-05-04 03:59:00,
2013-05-03 23:04:00,50.9,27.4,30.09,South,190,2.0,2.0,40,0.00,,,0.00,Wunderground v.1.15,2013-05-04 04:04:00,
2013-05-03 23:09:00,50.5,27.7,30.09,South,190,1.0,2.0,41,0.00,,,0.00,Wunderground v.1.15,2013-05-04 04:09:00,
2013-05-03 23:14:00,50.4,27.6,30.09,South,190,1.0,2.0,41,0.00,,,0.00,Wunderground v.1.15,2013-05-04 04:14:00,
2013-05-03 23:19:00,50.0,28.4,30.09,South,190,1.0,1.0,43,0.00,,,0.00,Wunderground v.1.15,2013-05-04 04:19:00,
2013-05-03 23:24:00,49.6,28.6,30.09,South,190,1.0,2.0,44,0.00,,,0.00,Wunderground v.1.15,2013-05-04 04:24:00,
2013-05-03 23:29:00,49.3,28.8,30.08,South,190,2.0,2.0,45,0.00,,,0.00,Wunderground v.1.15,2013-05-04 04:29:00,
2013-05-03 23:34:00,49.0,28.6,30.08,South,189,2.0,2.0,45,0.00,,,0.00,Wunderground v.1.15,2013-05-04 04:34:00,
2013-05-03 23:39:00,48.7,28.3,30.08,South,189,2.0,2.0,45,0.00,,,0.00,Wunderground v.1.15,2013-05-04 04:39:00,
2013-05-03 23:50:00,47.9,28.6,30.08,South,190,2.0,2.0,47,0.00,,,0.00,Wunderground v.1.15,2013-05-04 04:50:00,
2013-05-03 23:54:00,47.7,28.9,30.08,South,190,1.0,2.0,48,0.00,,,0.00,Wunderground v.1.15,2013-05-04 04:54:00,
2013-05-03 23:59:00,47.6,29.4,30.07,South,190,1.0,1.0,49,0.00,,,0.00,Wunderground v.1.15,2013-05-04 04:59:00,